FALCON HEAVY R/B (44345 NORAD) Tracking and Keplerian Element Data

This shows tracking and keplerian element data for the satellite.

Feedback or suggestion? Click here.




ElementValue
Catalog44345
NameFALCON HEAVY R/B
Epoch Orbit127
Epoch Day203.47836157
Epoch Year2019
RAAN192.8509
Inclination42.2166
Eccentricity0.2152831
Argument of Perigee15.0373
Mean Anonmoly350.4835
Mean Motion4.69269425
Decay Rate1.2E-07
L11 44345U 19036G 19203.47836157 .00000012 00000-0 00000-0 0 9998
L22 44345 42.2166 192.8509 2152831 15.0373 350.4835 4.69269425 1273

Live tracking and technical data element details for FALCON HEAVY R/B (NORAD 44345). FALCON HEAVY R/B can be tracked NOW for your location showing map with azimuth and elevation plus other details from your city location.

Track the satellite on the map from your city or location and see movement details for azimuth, elevation, latitude, longitude, range, height, and movement on the map or in text.







IsCatalogInMostPopularTable: catalog: 44345, numindb: 19
Update: records affected: 1



GetName: 44345 FALCON HEAVY R/B

Hit Count: updated at: Tue, 22 Oct 2019 23:46:03 GMT